Precipitable_Water
1.24 1.19 1.17 1.15 1.15 1.17 1.17 1.17 1.15 1.11 1.09 1.07 1.03 1.03 1.01 1.01 1.01 1.01 1.01 1.01 0.99 0.99 1.01 1.01 1.03 1.05 1.07 1.09 1.11 1.11 1.11 1.13 1.13 1.15 1.15 1.13 1.11 1.11 1.11 1.13 1.13 1.13 1.11 1.11 1.11 1.11 1.13 1.11 1.11 1.11 1.11 1.11 1.09 1.09 1.09 1.09 1.09 1.09 1.11 1.11 1.11 1.11 1.11 1.11 1.11 1.13 1.15 1.17 1.19
1.24 1.20 1.17 1.15 1.17 1.19 1.19 1.17 1.15 1.13 1.11 1.09 1.07 1.05 1.03 1.03 1.01 1.01 1.01 1.03 1.01 1.01 1.01 1.03 1.05 1.05 1.07 1.07 1.11 1.11 1.13 1.15 1.17 1.17 1.17 1.15 1.15 1.15 1.13 1.13 1.13 1.13 1.13 1.13 1.13 1.13 1.13 1.13 1.11 1.11 1.11 1.11 1.11 1.09 1.09 1.09 1.09 1.09 1.09 1.09 1.11 1.11 1.11 1.11 1.11 1.13 1.15 1.17 1.19
1.24 1.20 1.17 1.17 1.17 1.19 1.17 1.17 1.15 1.13 1.11 1.11 1.11 1.09 1.07 1.05 1.03 1.03 1.03 1.03 1.03 1.03 1.03 1.03 1.03 1.05 1.07 1.07 1.11 1.13 1.17 1.17 1.17 1.17 1.17 1.17 1.17 1.15 1.15 1.15 1.13 1.15 1.15 1.15 1.13 1.13 1.13 1.13 1.13 1.11 1.11 1.11 1.09 1.09 1.09 1.09 1.09 1.09 1.09 1.09 1.11 1.11 1.13 1.13 1.13 1.15 1.17 1.19 1.20
1.22 1.19 1.17 1.17 1.17 1.17 1.17 1.15 1.13 1.13 1.13 1.13 1.13 1.11 1.11 1.09 1.07 1.05 1.05 1.05 1.05 1.05 1.05 1.03 1.05 1.07 1.07 1.09 1.11 1.15 1.17 1.17 1.19 1.19 1.17 1.17 1.17 1.17 1.15 1.15 1.13 1.13 1.13 1.15 1.15 1.15 1.13 1.15 1.13 1.13 1.11 1.11 1.09 1.09 1.09 1.09 1.09 1.09 1.09 1.11 1.11 1.13 1.13 1.13 1.15 1.15 1.17 1.19 1.20
1.20 1.17 1.15 1.15 1.17 1.17 1.17 1.17 1.15 1.15 1.15 1.15 1.15 1.13 1.13 1.11 1.09 1.07 1.07 1.05 1.05 1.05 1.07 1.09 1.11 1.11 1.13 1.15 1.15 1.15 1.15 1.17 1.17 1.17 1.17 1.17 1.17 1.17 1.15 1.15 1.13 1.13 1.13 1.15 1.15 1.15 1.15 1.15 1.13 1.13 1.13 1.11 1.11 1.11 1.11 1.11 1.11 1.09 1.09 1.11 1.13 1.15 1.15 1.15 1.15 1.17 1.19 1.19 1.20
1.19 1.17 1.15 1.17 1.19 1.19 1.19 1.19 1.17 1.17 1.17 1.17 1.15 1.13 1.11 1.11 1.09 1.09 1.07 1.07 1.07 1.09 1.11 1.15 1.17 1.17 1.17 1.17 1.17 1.17 1.17 1.17 1.17 1.17 1.17 1.15 1.17 1.17 1.15 1.15 1.15 1.13 1.13 1.13 1.13 1.15 1.15 1.15 1.13 1.13 1.13 1.13 1.15 1.15 1.15 1.15 1.15 1.13 1.11 1.13 1.15 1.17 1.17 1.17 1.17 1.17 1.19 1.19 1.20
1.17 1.15 1.15 1.19 1.20 1.20 1.20 1.20 1.20 1.19 1.19 1.17 1.15 1.13 1.11 1.09 1.09 1.09 1.09 1.09 1.11 1.13 1.15 1.19 1.19 1.19 1.17 1.17 1.17 1.17 1.17 1.17 1.17 1.17 1.17 1.15 1.15 1.15 1.15 1.15 1.15 1.15 1.13 1.13 1.13 1.13 1.15 1.15 1.15 1.13 1.15 1.15 1.15 1.17 1.19 1.19 1.17 1.17 1.15 1.13 1.15 1.17 1.19 1.19 1.19 1.19 1.19 1.19 1.20
1.17 1.15 1.17 1.20 1.20 1.22 1.22 1.20 1.20 1.20 1.19 1.17 1.13 1.11 1.11 1.09 1.09 1.09 1.11 1.13 1.15 1.17 1.19 1.19 1.19 1.19 1.19 1.19 1.19 1.19 1.19 1.19 1.17 1.17 1.17 1.17 1.15 1.15 1.15 1.15 1.15 1.13 1.13 1.13 1.13 1.13 1.15 1.15 1.15 1.15 1.15 1.17 1.17 1.17 1.19 1.20 1.19 1.19 1.17 1.15 1.17 1.20 1.20 1.22 1.22 1.20 1.20 1.19 1.20
1.17 1.17 1.19 1.22 1.22 1.22 1.22 1.20 1.20 1.19 1.17 1.15 1.13 1.13 1.13 1.11 1.11 1.13 1.13 1.15 1.17 1.19 1.19 1.20 1.20 1.20 1.20 1.20 1.20 1.20 1.19 1.19 1.17 1.17 1.17 1.17 1.15 1.15 1.15 1.15 1.15 1.15 1.15 1.15 1.17 1.17 1.17 1.17 1.17 1.17 1.19 1.19 1.19 1.19 1.20 1.20 1.20 1.20 1.19 1.19 1.20 1.20 1.22 1.24 1.24 1.24 1.24 1.26 1.24
1.17 1.19 1.20 1.24 1.24 1.24 1.22 1.22 1.20 1.19 1.17 1.15 1.15 1.15 1.13 1.13 1.15 1.15 1.17 1.19 1.20 1.20 1.20 1.20 1.20 1.20 1.20 1.20 1.20 1.19 1.19 1.19 1.17 1.17 1.17 1.17 1.17 1.15 1.15 1.15 1.15 1.17 1.17 1.19 1.20 1.20 1.20 1.20 1.19 1.19 1.20 1.20 1.20 1.20 1.22 1.22 1.22 1.22 1.22 1.22 1.22 1.22 1.24 1.24 1.26 1.26 1.28 1.30 1.28
1.19 1.22 1.24 1.26 1.24 1.24 1.24 1.20 1.20 1.19 1.17 1.15 1.15 1.15 1.15 1.15 1.17 1.19 1.20 1.20 1.20 1.19 1.19 1.20 1.20 1.19 1.19 1.19 1.19 1.19 1.19 1.19 1.19 1.17 1.17 1.17 1.17 1.17 1.17 1.19 1.19 1.19 1.20 1.22 1.24 1.24 1.24 1.22 1.22 1.20 1.22 1.22 1.22 1.22 1.22 1.24 1.24 1.24 1.24 1.24 1.24 1.24 1.24 1.26 1.28 1.30 1.30 1.32 1.32
1.24 1.26 1.28 1.26 1.26 1.24 1.22 1.20 1.19 1.17 1.15 1.13 1.13 1.13 1.15 1.17 1.19 1.20 1.22 1.20 1.19 1.19 1.19 1.20 1.19 1.19 1.19 1.19 1.19 1.19 1.19 1.19 1.19 1.19 1.19 1.19 1.19 1.19 1.20 1.20 1.20 1.22 1.24 1.26 1.28 1.28 1.28 1.26 1.24 1.24 1.24 1.24 1.24 1.26 1.26 1.26 1.24 1.24 1.24 1.24 1.24 1.24 1.26 1.26 1.28 1.30 1.32 1.32 1.32
1.26 1.28 1.28 1.26 1.24 1.22 1.20 1.19 1.17 1.15 1.13 1.13 1.15 1.15 1.19 1.19 1.22 1.22 1.22 1.20 1.19 1.19 1.19 1.20 1.20 1.20 1.19 1.19 1.19 1.19 1.20 1.20 1.20 1.20 1.20 1.20 1.20 1.22 1.22 1.22 1.24 1.28 1.30 1.32 1.32 1.32 1.32 1.30 1.28 1.28 1.26 1.26 1.26 1.26 1.26 1.26 1.24 1.24 1.22 1.22 1.24 1.24 1.24 1.24 1.28 1.30 1.32 1.32 1.32
1.28 1.26 1.24 1.22 1.20 1.19 1.17 1.15 1.15 1.13 1.13 1.15 1.17 1.19 1.20 1.22 1.22 1.22 1.20 1.19 1.19 1.19 1.19 1.20 1.20 1.20 1.20 1.20 1.20 1.20 1.20 1.20 1.22 1.22 1.24 1.24 1.26 1.26 1.26 1.28 1.28 1.30 1.32 1.34 1.34 1.34 1.34 1.32 1.30 1.30 1.28 1.26 1.26 1.26 1.26 1.24 1.24 1.22 1.22 1.22 1.22 1.24 1.24 1.26 1.26 1.30 1.32 1.32 1.32
1.26 1.22 1.20 1.19 1.17 1.17 1.15 1.15 1.13 1.15 1.15 1.17 1.19 1.20 1.22 1.22 1.22 1.22 1.20 1.19 1.19 1.19 1.20 1.20 1.20 1.22 1.22 1.22 1.22 1.22 1.24 1.24 1.26 1.26 1.28 1.30 1.30 1.30 1.30 1.30 1.30 1.30 1.32 1.32 1.32 1.32 1.30 1.30 1.28 1.28 1.26 1.24 1.24 1.24 1.22 1.22 1.22 1.22 1.22 1.22 1.22 1.24 1.26 1.26 1.28 1.30 1.30 1.30 1.30
1.22 1.20 1.19 1.17 1.15 1.15 1.15 1.13 1.13 1.15 1.15 1.17 1.19 1.20 1.20 1.20 1.20 1.20 1.19 1.19 1.19 1.20 1.20 1.20 1.20 1.22 1.24 1.24 1.26 1.26 1.28 1.28 1.30 1.30 1.30 1.30 1.30 1.30 1.30 1.28 1.26 1.26 1.26 1.26 1.26 1.26 1.26 1.26 1.24 1.24 1.24 1.22 1.22 1.22 1.20 1.20 1.22 1.22 1.22 1.24 1.24 1.26 1.28 1.28 1.30 1.30 1.32 1.32 1.30
1.19 1.19 1.17 1.15 1.15 1.13 1.13 1.13 1.13 1.13 1.15 1.15 1.17 1.17 1.19 1.19 1.19 1.19 1.19 1.19 1.20 1.20 1.20 1.20 1.22 1.24 1.26 1.28 1.30 1.30 1.30 1.30 1.30 1.30 1.30 1.28 1.28 1.28 1.26 1.24 1.22 1.22 1.22 1.20 1.20 1.20 1.20 1.20 1.20 1.22 1.22 1.20 1.20 1.22 1.22 1.22 1.22 1.22 1.24 1.24 1.26 1.28 1.28 1.30 1.32 1.32 1.32 1.32 1.32
1.19 1.17 1.17 1.15 1.13 1.13 1.11 1.11 1.11 1.11 1.13 1.13 1.13 1.15 1.17 1.17 1.19 1.19 1.20 1.22 1.22 1.22 1.22 1.22 1.24 1.26 1.28 1.28 1.30 1.30 1.30 1.30 1.28 1.28 1.26 1.26 1.24 1.22 1.20 1.20 1.20 1.20 1.20 1.20 1.19 1.19 1.19 1.19 1.20 1.20 1.22 1.22 1.22 1.24 1.26 1.26 1.26 1.26 1.26 1.26 1.28 1.30 1.30 1.32 1.34 1.34 1.34 1.32 1.32
1.17 1.15 1.15 1.13 1.13 1.11 1.11 1.11 1.09 1.11 1.11 1.13 1.13 1.15 1.17 1.19 1.20 1.22 1.24 1.26 1.26 1.26 1.26 1.26 1.26 1.28 1.28 1.28 1.28 1.28 1.28 1.26 1.24 1.24 1.24 1.22 1.20 1.19 1.17 1.19 1.19 1.20 1.20 1.20 1.20 1.20 1.20 1.22 1.22 1.24 1.24 1.24 1.26 1.28 1.30 1.30 1.28 1.28 1.30 1.30 1.30 1.30 1.32 1.34 1.34 1.34 1.34 1.32 1.32
1.17 1.15 1.13 1.13 1.13 1.11 1.11 1.11 1.11 1.11 1.13 1.15 1.17 1.19 1.19 1.22 1.22 1.24 1.26 1.28 1.28 1.28 1.28 1.26 1.26 1.26 1.26 1.26 1.24 1.24 1.22 1.22 1.20 1.19 1.19 1.17 1.17 1.17 1.17 1.19 1.20 1.22 1.22 1.24 1.24 1.26 1.26 1.26 1.28 1.28 1.28 1.28 1.30 1.32 1.32 1.32 1.32 1.32 1.32 1.32 1.32 1.32 1.34 1.36 1.36 1.34 1.34 1.32 1.32
1.17 1.17 1.15 1.15 1.15 1.13 1.13 1.13 1.13 1.15 1.17 1.19 1.19 1.20 1.22 1.24 1.26 1.26 1.26 1.26 1.26 1.26 1.24 1.24 1.22 1.22 1.20 1.20 1.19 1.19 1.19 1.19 1.17 1.17 1.15 1.17 1.17 1.19 1.20 1.22 1.24 1.26 1.28 1.28 1.30 1.30 1.32 1.32 1.32 1.32 1.32 1.34 1.34 1.34 1.34 1.34 1.32 1.32 1.32 1.32 1.34 1.34 1.34 1.36 1.36 1.34 1.34 1.32 1.32
1.17 1.17 1.17 1.17 1.17 1.15 1.15 1.17 1.17 1.19 1.19 1.20 1.22 1.22 1.24 1.26 1.26 1.26 1.26 1.24 1.22 1.20 1.19 1.17 1.17 1.17 1.15 1.15 1.15 1.15 1.17 1.17 1.17 1.17 1.19 1.20 1.20 1.24 1.28 1.30 1.32 1.32 1.34 1.34 1.34 1.36 1.36 1.38 1.36 1.36 1.36 1.36 1.36 1.36 1.34 1.34 1.34 1.34 1.34 1.34 1.34 1.34 1.34 1.34 1.34 1.34 1.34 1.32 1.32
1.15 1.17 1.17 1.17 1.17 1.17 1.17 1.19 1.19 1.20 1.20 1.20 1.22 1.22 1.22 1.24 1.22 1.22 1.20 1.19 1.17 1.15 1.13 1.13 1.13 1.13 1.13 1.13 1.13 1.13 1.15 1.15 1.17 1.20 1.22 1.26 1.28 1.30 1.34 1.36 1.36 1.36 1.36 1.38 1.38 1.38 1.40 1.40 1.40 1.38 1.38 1.38 1.36 1.36 1.36 1.36 1.36 1.34 1.34 1.32 1.32 1.32 1.32 1.32 1.32 1.34 1.32 1.32 1.32
1.15 1.15 1.17 1.17 1.19 1.19 1.19 1.20 1.20 1.20 1.19 1.19 1.19 1.19 1.19 1.17 1.17 1.15 1.15 1.13 1.11 1.11 1.11 1.11 1.11 1.11 1.11 1.13 1.13 1.13 1.15 1.19 1.20 1.24 1.26 1.30 1.32 1.34 1.36 1.38 1.38 1.38 1.38 1.40 1.40 1.40 1.40 1.40 1.40 1.38 1.38 1.38 1.36 1.36 1.36 1.36 1.36 1.34 1.32 1.32 1.30 1.30 1.30 1.32 1.32 1.32 1.32 1.32 1.32
1.17 1.17 1.19 1.19 1.19 1.19 1.19 1.19 1.19 1.17 1.15 1.15 1.13 1.13 1.11 1.11 1.09 1.09 1.09 1.09 1.09 1.09 1.09 1.11 1.11 1.11 1.13 1.13 1.15 1.19 1.22 1.24 1.26 1.28 1.30 1.30 1.32 1.34 1.34 1.36 1.38 1.38 1.40 1.40 1.40 1.40 1.40 1.40 1.40 1.40 1.40 1.38 1.38 1.36 1.36 1.36 1.34 1.34 1.32 1.32 1.30 1.28 1.26 1.26 1.26 1.28 1.28 1.28 1.28
1.20 1.20 1.20 1.19 1.19 1.19 1.19 1.17 1.13 1.11 1.11 1.09 1.07 1.05 1.05 1.05 1.05 1.05 1.07 1.07 1.09 1.09 1.11 1.11 1.13 1.13 1.15 1.17 1.20 1.24 1.26 1.28 1.28 1.28 1.28 1.30 1.30 1.32 1.34 1.34 1.36 1.38 1.40 1.40 1.40 1.40 1.40 1.40 1.40 1.40 1.40 1.38 1.36 1.36 1.34 1.34 1.34 1.34 1.32 1.32 1.28 1.26 1.24 1.22 1.22 1.22 1.22 1.22 1.22
1.22 1.20 1.19 1.19 1.17 1.15 1.13 1.11 1.09 1.05 1.05 1.03 1.03 1.01 1.01 1.03 1.05 1.05 1.07 1.07 1.09 1.11 1.11 1.13 1.15 1.17 1.19 1.24 1.24 1.26 1.26 1.26 1.26 1.26 1.26 1.26 1.28 1.28 1.30 1.32 1.34 1.36 1.38 1.38 1.38 1.38 1.40 1.40 1.40 1.40 1.40 1.38 1.34 1.32 1.32 1.32 1.32 1.32 1.30 1.30 1.26 1.24 1.24 1.22 1.20 1.20 1.20 1.20 1.20
1.19 1.17 1.15 1.13 1.11 1.09 1.07 1.05 1.03 1.01 1.01 1.01 1.01 1.01 1.03 1.05 1.05 1.07 1.07 1.07 1.09 1.11 1.13 1.15 1.19 1.22 1.26 1.26 1.26 1.26 1.24 1.24 1.24 1.24 1.24 1.24 1.24 1.26 1.28 1.28 1.30 1.32 1.34 1.36 1.38 1.38 1.38 1.36 1.36 1.36 1.36 1.34 1.32 1.30 1.28 1.28 1.28 1.28 1.26 1.26 1.24 1.22 1.22 1.20 1.20 1.19 1.19 1.19 1.19
1.13 1.11 1.09 1.07 1.05 1.03 1.03 1.03 1.01 1.01 1.01 1.01 1.03 1.03 1.05 1.05 1.05 1.07 1.07 1.09 1.11 1.13 1.17 1.19 1.24 1.26 1.26 1.24 1.24 1.24 1.22 1.20 1.20 1.20 1.20 1.20 1.22 1.24 1.26 1.26 1.28 1.30 1.32 1.34 1.34 1.34 1.34 1.32 1.32 1.32 1.32 1.32 1.32 1.30 1.28 1.26 1.24 1.24 1.24 1.24 1.22 1.20 1.20 1.20 1.20 1.20 1.19 1.19 1.19
1.05 1.03 1.03 1.01 1.01 1.01 1.01 1.01 1.01 1.01 1.03 1.03 1.03 1.05 1.05 1.05 1.07 1.07 1.09 1.09 1.13 1.19 1.22 1.24 1.24 1.24 1.22 1.20 1.20 1.20 1.20 1.19 1.19 1.19 1.19 1.19 1.19 1.20 1.22 1.24 1.26 1.28 1.30 1.32 1.32 1.30 1.28 1.28 1.28 1.28 1.28 1.30 1.30 1.28 1.26 1.24 1.22 1.22 1.20 1.19 1.19 1.20 1.20 1.19 1.19 1.19 1.19 1.17 1.17
1.01 0.99 0.99 0.99 0.99 0.99 0.99 1.01 1.01 1.03 1.03 1.03 1.05 1.05 1.05 1.05 1.07 1.07 1.09 1.13 1.19 1.22 1.24 1.24 1.22 1.20 1.19 1.19 1.19 1.19 1.19 1.17 1.17 1.17 1.17 1.17 1.19 1.20 1.22 1.22 1.24 1.26 1.26 1.28 1.28 1.26 1.24 1.24 1.24 1.24 1.26 1.26 1.26 1.26 1.24 1.22 1.22 1.20 1.19 1.17 1.17 1.17 1.17 1.17 1.17 1.17 1.17 1.17 1.17
0.99 0.99 0.97 0.97 0.97 0.97 0.99 1.01 1.01 1.03 1.03 1.03 1.03 1.05 1.05 1.07 1.09 1.11 1.15 1.17 1.20 1.20 1.20 1.20 1.19 1.17 1.15 1.15 1.15 1.17 1.17 1.15 1.15 1.15 1.15 1.17 1.17 1.19 1.20 1.20 1.22 1.22 1.24 1.26 1.24 1.22 1.22 1.20 1.20 1.20 1.22 1.24 1.24 1.22 1.22 1.20 1.19 1.19 1.17 1.15 1.15 1.15 1.15 1.15 1.15 1.15 1.15 1.17 1.17
0.99 0.99 0.99 0.99 0.99 0.99 1.01 1.03 1.05 1.05 1.07 1.07 1.07 1.07 1.09 1.09 1.11 1.15 1.17 1.19 1.20 1.19 1.19 1.17 1.15 1.13 1.13 1.11 1.13 1.13 1.15 1.13 1.13 1.13 1.15 1.17 1.17 1.17 1.17 1.19 1.19 1.20 1.22 1.22 1.22 1.22 1.20 1.19 1.19 1.19 1.20 1.22 1.20 1.20 1.19 1.19 1.17 1.15 1.13 1.13 1.13 1.13 1.15 1.15 1.15 1.15 1.15 1.17 1.15
1.01 1.01 1.01 1.01 1.03 1.03 1.05 1.05 1.07 1.09 1.09 1.09 1.09 1.09 1.11 1.11 1.13 1.15 1.15 1.17 1.19 1.19 1.17 1.15 1.13 1.13 1.11 1.11 1.11 1.11 1.13 1.13 1.11 1.11 1.11 1.13 1.15 1.15 1.15 1.15 1.15 1.17 1.19 1.19 1.19 1.20 1.20 1.19 1.19 1.19 1.19 1.19 1.19 1.17 1.17 1.15 1.15 1.13 1.11 1.11 1.11 1.11 1.13 1.13 1.13 1.13 1.15 1.15 1.13
1.05 1.05 1.05 1.07 1.07 1.07 1.09 1.09 1.09 1.09 1.09 1.09 1.09 1.11 1.11 1.13 1.13 1.15 1.15 1.15 1.17 1.15 1.15 1.13 1.13 1.11 1.11 1.09 1.11 1.11 1.11 1.11 1.09 1.09 1.09 1.11 1.11 1.11 1.11 1.11 1.13 1.13 1.15 1.15 1.17 1.17 1.19 1.19 1.19 1.19 1.17 1.15 1.15 1.13 1.13 1.11 1.11 1.09 1.09 1.09 1.09 1.09 1.09 1.11 1.11 1.11 1.13 1.13 1.11
1.09 1.09 1.09 1.09 1.09 1.09 1.11 1.11 1.09 1.09 1.09 1.09 1.09 1.11 1.11 1.13 1.13 1.13 1.15 1.15 1.15 1.13 1.13 1.11 1.11 1.09 1.09 1.07 1.09 1.09 1.09 1.11 1.09 1.07 1.07 1.09 1.09 1.09 1.07 1.07 1.09 1.09 1.09 1.11 1.13 1.15 1.17 1.17 1.17 1.17 1.15 1.13 1.13 1.11 1.09 1.09 1.07 1.07 1.07 1.07 1.07 1.07 1.07 1.07 1.09 1.09 1.09 1.07 1.09
1.11 1.11 1.11 1.11 1.11 1.11 1.11 1.09 1.09 1.09 1.09 1.09 1.09 1.09 1.11 1.11 1.11 1.13 1.13 1.15 1.13 1.13 1.11 1.09 1.09 1.07 1.07 1.07 1.07 1.07 1.09 1.09 1.09 1.07 1.05 1.07 1.07 1.07 1.05 1.05 1.07 1.07 1.09 1.11 1.11 1.13 1.15 1.15 1.15 1.15 1.15 1.13 1.11 1.09 1.09 1.07 1.05 1.05 1.05 1.03 1.03 1.03 1.05 1.05 1.05 1.07 1.05 1.03 1.05
1.13 1.13 1.11 1.11 1.09 1.09 1.09 1.09 1.09 1.07 1.07 1.09 1.09 1.09 1.09 1.11 1.11 1.11 1.11 1.13 1.11 1.11 1.09 1.09 1.07 1.05 1.05 1.05 1.07 1.07 1.07 1.09 1.07 1.07 1.05 1.05 1.05 1.05 1.05 1.03 1.03 1.05 1.07 1.09 1.11 1.11 1.13 1.13 1.13 1.13 1.13 1.11 1.11 1.09 1.07 1.05 1.05 1.03 1.03 1.01 1.01 1.01 1.03 1.03 1.03 1.03 1.03 1.01 1.01
1.11 1.11 1.11 1.11 1.09 1.09 1.09 1.07 1.07 1.07 1.07 1.07 1.09 1.09 1.09 1.09 1.09 1.09 1.11 1.11 1.11 1.09 1.09 1.07 1.05 1.05 1.05 1.05 1.05 1.05 1.05 1.05 1.07 1.05 1.05 1.03 1.03 1.03 1.03 1.03 1.03 1.05 1.07 1.09 1.09 1.11 1.11 1.13 1.13 1.13 1.13 1.11 1.09 1.09 1.07 1.05 1.03 1.01 1.01 0.99 0.99 0.99 0.99 0.99 0.99 0.99 0.99 0.97 0.97
1.11 1.11 1.11 1.09 1.09 1.07 1.07 1.07 1.07 1.07 1.07 1.07 1.07 1.07 1.07 1.09 1.09 1.09 1.09 1.11 1.09 1.09 1.07 1.07 1.05 1.03 1.03 1.03 1.03 1.03 1.03 1.03 1.03 1.03 1.03 1.03 1.03 1.03 1.03 1.03 1.03 1.03 1.05 1.07 1.09 1.11 1.11 1.11 1.11 1.11 1.11 1.09 1.09 1.07 1.05 1.03 1.01 1.01 0.99 0.99 0.97 0.97 0.97 0.97 0.97 0.97 0.95 0.95 0.95
1.09 1.09 1.09 1.09 1.09 1.07 1.07 1.05 1.05 1.07 1.07 1.07 1.07 1.07 1.07 1.09 1.09 1.09 1.09 1.09 1.07 1.07 1.07 1.05 1.05 1.03 1.03 1.01 1.01 1.01 0.99 0.99 1.01 1.01 1.03 1.03 1.03 1.01 1.01 1.01 1.01 1.03 1.03 1.05 1.07 1.09 1.09 1.11 1.09 1.09 1.09 1.07 1.07 1.05 1.03 1.01 0.99 0.97 0.97 0.97 0.97 0.97 0.95 0.95 0.95 0.93 0.93 0.93 0.93
Wind_Speed
49 48 46 44 42 40 39 38 37 36 35 35 34 34 33 33 32 31 30 30 30 30 30 30 31 31 31 31 32 32 32 32 32 32 33 33 33 34 34 33 33 33 33 33 32 33 33 33 33 33 33 33 34 34 34 33 33 33 33 33 33 32 32 32 32 33 33 32 31
49 48 45 43 41 40 39 38 37 36 35 34 33 33 32 32 31 31 30 30 29 29 29 30 30 31 31 31 31 32 32 32 32 32 33 33 34 34 34 34 34 34 34 34 33 33 33 34 34 34 34 34 35 35 35 34 34 34 34 34 34 33 33 33 33 33 34 33 33
49 47 45 42 41 40 39 38 37 36 35 34 33 32 32 31 31 30 30 29 28 28 28 29 30 31 31 31 31 32 32 32 33 33 33 33 34 34 34 35 35 35 35 35 34 34 34 35 35 35 35 35 35 36 35 35 35 34 34 35 34 34 33 33 33 33 34 34 34
48 47 44 42 41 40 39 38 37 36 35 33 32 32 31 30 30 29 29 29 28 28 28 29 30 30 31 31 32 32 32 33 33 33 33 33 34 34 35 35 35 35 36 36 36 36 36 36 36 36 36 36 36 36 36 36 35 35 34 35 35 34 34 34 34 34 34 34 34
47 45 43 42 41 40 39 37 36 35 34 33 32 31 30 30 29 28 28 28 29 29 29 29 29 30 31 31 32 32 32 33 33 33 33 34 34 34 35 35 36 36 36 36 37 37 37 37 36 36 36 37 37 36 36 36 35 35 34 34 35 35 35 35 34 34 34 34 34
46 44 43 42 41 40 38 36 35 34 33 32 32 31 30 29 29 28 28 28 29 29 30 29 29 30 30 30 31 31 32 32 33 33 34 34 34 34 35 35 36 36 36 37 37 38 38 38 37 37 37 37 37 37 37 36 36 35 35 34 35 35 35 35 35 35 35 35 35
45 43 42 42 41 39 37 35 34 33 32 32 31 31 30 30 29 29 29 29 29 29 29 29 29 29 29 30 30 31 31 31 32 33 33 34 34 34 35 35 35 36 36 37 37 37 38 38 37 37 37 37 37 37 37 36 36 35 35 35 35 35 35 36 35 35 35 35 35
44 42 42 41 41 39 36 34 33 32 32 31 31 31 31 30 30 30 29 29 29 29 29 29 29 29 29 29 30 30 30 31 31 32 33 33 34 34 34 35 35 36 36 36 37 37 37 37 37 37 37 37 37 37 37 37 36 36 36 36 36 36 36 36 35 35 35 35 35
42 42 41 41 40 38 36 34 33 32 32 32 32 32 31 31 30 30 30 29 29 29 29 29 29 29 29 29 30 30 30 31 31 31 32 33 33 34 34 35 35 36 36 36 36 37 37 37 37 37 37 37 36 37 37 37 37 37 37 37 36 36 36 36 35 35 34 34 34
42 41 41 40 39 37 36 34 33 33 33 33 33 32 31 30 30 30 29 29 29 29 29 29 29 29 29 30 30 30 30 31 31 31 32 32 33 34 34 34 35 35 36 36 36 36 37 36 37 37 37 37 37 37 37 37 37 37 37 37 36 36 36 35 35 34 34 34 35
42 42 41 39 38 37 35 34 33 33 33 33 32 31 30 30 30 29 29 28 28 28 29 29 29 29 30 30 30 30 30 31 31 31 32 33 33 34 34 34 35 35 36 36 36 36 36 36 36 37 37 37 38 38 38 38 38 38 38 37 37 36 36 36 35 35 35 36 36
42 42 40 39 37 36 35 34 34 34 34 33 31 30 30 29 29 29 29 28 28 28 28 29 29 29 30 30 30 30 31 31 31 32 32 33 33 34 34 34 35 35 36 36 36 35 35 35 35 36 37 37 37 37 38 38 38 38 38 37 37 37 36 36 36 36 36 37 37
42 41 39 38 37 35 34 34 34 34 33 32 31 30 29 29 29 29 29 28 28 28 29 29 29 30 30 30 30 31 31 31 32 32 33 33 33 34 34 34 35 35 35 36 36 35 34 34 34 34 34 35 35 35 36 36 36 36 36 36 36 36 36 37 37 37 38 38 38
40 39 38 37 36 35 34 34 33 33 32 31 30 30 29 29 29 29 29 29 29 29 29 30 30 30 31 31 31 31 32 32 32 33 33 33 33 33 34 34 35 35 35 35 35 35 35 34 34 33 33 33 33 33 33 34 34 35 35 35 36 36 36 37 37 38 38 39 39
38 37 36 35 35 34 34 33 32 31 31 30 30 29 29 29 29 29 29 29 30 30 30 31 31 31 31 32 32 32 32 32 32 32 33 33 33 33 34 34 34 35 35 35 35 35 35 35 35 34 33 33 33 33 33 33 34 34 34 35 36 36 36 37 37 38 38 39 38
36 35 35 34 34 33 33 32 31 30 30 29 29 29 28 29 29 29 30 30 30 31 31 31 31 31 31 31 31 31 31 32 32 32 33 33 33 34 34 34 34 35 35 35 35 35 36 36 36 36 35 35 34 34 34 34 35 35 35 36 36 36 36 36 36 37 37 37 37
34 34 33 33 33 33 32 31 30 29 29 29 29 29 29 29 29 30 30 31 31 31 31 31 31 31 31 31 31 31 31 32 32 33 33 33 33 34 34 34 35 35 35 35 36 36 36 36 36 37 37 36 36 35 35 35 36 36 36 36 36 36 36 36 35 36 36 36 36
33 33 33 32 32 31 31 30 29 29 29 29 29 29 29 29 30 30 30 31 31 31 31 31 31 30 30 30 31 31 31 32 32 32 33 33 33 34 34 35 35 35 35 35 36 36 36 36 37 37 37 37 36 35 35 35 35 36 36 36 36 36 35 35 35 35 35 35 35
32 31 31 31 31 30 30 29 29 29 28 28 28 29 29 29 30 30 30 30 30 30 30 30 30 30 30 30 31 31 31 31 32 32 33 33 33 34 34 34 35 35 35 35 35 35 35 36 36 36 36 36 36 35 35 35 35 35 35 35 35 35 35 35 35 35 34 34 34
29 29 29 29 29 29 28 28 28 28 28 28 28 28 28 29 29 29 29 29 29 29 29 29 29 29 29 30 30 30 30 31 31 32 33 33 33 33 34 34 34 34 34 34 34 34 34 34 35 35 35 35 35 35 35 35 35 35 35 35 35 35 35 35 35 35 35 34 34
26 27 27 27 27 27 27 27 27 27 27 27 27 27 27 27 27 27 28 28 28 28 28 28 28 29 29 29 29 30 30 30 31 31 32 32 33 33 33 33 33 33 33 33 33 33 34 34 34 34 34 34 34 34 34 34 35 34 34 35 35 35 35 35 35 35 35 34 34
24 25 25 25 25 25 25 25 25 25 25 25 25 25 25 25 25 26 26 26 26 26 27 27 28 28 28 29 29 29 29 30 30 31 31 32 32 32 33 33 33 33 33 33 33 33 33 33 33 33 33 33 33 33 33 34 34 34 34 34 34 35 35 35 35 35 35 34 34
23 23 23 23 23 23 23 23 23 23 23 23 23 23 23 23 24 24 24 25 25 25 26 26 27 27 28 28 28 29 29 29 30 30 31 31 31 32 32 32 32 32 32 32 33 33 33 33 32 32 32 32 32 32 32 32 32 32 33 33 34 34 34 34 34 34 34 34 33
22 22 22 22 22 22 22 22 22 22 22 22 22 22 22 22 23 23 24 24 24 25 25 25 26 26 26 27 27 28 28 29 29 30 30 30 31 31 31 31 31 31 32 32 32 32 32 31 31 31 31 30 30 30 31 31 31 31 31 32 32 32 32 32 32 32 32 31 31
21 21 21 21 21 21 21 21 21 21 21 21 21 22 22 22 23 23 24 24 24 24 24 24 24 25 25 25 26 26 27 27 28 28 29 29 29 29 30 30 30 30 30 30 31 31 31 30 30 29 29 29 29 29 29 29 29 30 30 30 30 30 29 28 28 28 28 28 28
21 20 20 20 20 20 20 20 20 20 21 21 21 22 22 23 23 23 23 23 23 23 23 23 23 23 23 23 23 23 24 24 24 25 25 26 26 27 28 28 28 29 29 29 29 29 29 29 29 28 28 28 27 27 27 27 27 27 27 27 27 27 26 25 25 25 25 25 25
20 20 19 19 19 20 20 20 20 20 21 21 21 22 22 22 22 22 22 22 22 22 22 21 21 21 21 20 20 20 20 20 21 21 22 22 23 23 24 25 25 26 26 27 27 27 27 27 27 26 26 26 25 24 24 24 24 24 24 24 25 25 25 24 24 24 24 23 23
19 19 19 19 19 20 20 20 20 20 20 21 21 21 21 21 21 21 21 21 21 20 20 20 19 19 18 18 17 17 17 18 18 18 18 19 19 20 21 21 22 23 23 23 23 24 24 24 24 24 24 24 23 23 22 21 21 21 21 22 22 23 23 23 23 23 22 22 22
18 18 19 19 19 19 19 19 19 19 19 19 19 19 19 19 19 19 20 19 19 19 18 18 17 16 16 16 15 15 15 15 15 15 15 16 16 17 18 19 20 20 21 20 20 21 22 22 23 23 23 22 22 22 21 20 20 19 19 19 19 20 21 21 22 22 21 21 21
18 18 19 19 19 18 18 18 18 18 18 18 18 18 18 18 18 18 18 18 18 17 16 16 15 15 14 14 13 13 13 12 12 13 13 13 13 14 15 16 17 18 18 18 18 19 19 20 21 21 21 21 21 21 20 20 20 19 19 18 18 18 19 20 20 21 21 21 21
18 18 18 18 18 17 17 17 17 17 17 17 16 16 17 16 16 16 17 16 16 15 15 14 14 13 13 12 11 11 11 11 11 11 11 11 11 12 12 13 14 15 15 15 16 16 17 18 19 20 20 20 20 20 20 20 20 19 18 18 18 18 19 19 20 20 21 21 21
17 17 17 17 17 17 16 16 16 16 16 16 15 15 15 15 15 15 15 15 15 15 14 14 13 12 11 11 10 10 9 9 9 9 9 10 10 9 9 10 11 11 12 12 13 13 14 16 17 19 20 20 20 20 20 19 19 18 17 17 17 18 18 19 19 20 20 21 21
15 15 15 15 15 15 15 15 15 15 15 15 14 14 14 14 14 14 14 15 15 15 15 14 13 12 11 10 10 9 8 8 8 8 8 8 8 8 8 8 9 9 9 10 10 11 12 13 15 16 17 18 19 19 19 18 18 17 16 16 16 17 18 18 19 19 20 20 20
14 14 14 14 14 14 14 14 14 14 14 14 14 14 14 14 14 14 14 15 15 15 15 14 12 12 11 11 10 9 8 7 7 7 7 7 7 7 8 8 9 9 9 9 10 10 11 11 12 13 14 16 17 18 18 18 17 16 15 15 15 16 17 17 18 18 19 19 19
13 13 13 13 14 14 14 14 14 14 14 13 13 13 13 13 13 14 14 15 15 15 14 13 13 12 11 10 9 8 8 7 6 6 7 7 7 7 8 8 9 9 9 9 10 10 11 11 11 12 13 15 16 17 17 17 16 15 14 14 15 15 16 16 17 17 18 18 19
13 13 13 13 13 13 14 14 14 13 13 13 13 13 13 13 14 14 14 15 15 14 14 13 13 12 11 10 9 8 7 7 7 7 7 7 7 7 8 8 8 9 9 10 10 11 11 12 12 13 14 15 16 16 16 16 15 14 14 14 14 15 15 15 15 16 16 17 18
13 13 13 13 13 13 14 14 14 13 13 14 14 14 14 14 14 14 14 14 14 14 14 13 12 12 11 10 9 8 7 7 7 7 7 7 8 8 8 8 8 8 9 10 11 12 12 13 14 14 15 16 16 16 16 15 14 14 14 14 15 15 15 15 15 15 16 16 16
13 13 13 13 13 14 14 14 14 14 15 15 15 15 14 14 14 14 14 14 14 14 14 13 13 12 11 10 9 9 8 7 7 8 8 8 8 8 8 8 8 8 9 10 11 12 13 14 15 16 16 17 17 17 16 15 15 15 15 15 15 15 15 15 15 15 14 14 14
12 12 13 14 14 15 15 15 16 16 16 16 16 15 14 14 14 14 14 14 14 14 14 14 13 12 12 11 10 9 9 8 8 8 8 8 8 9 9 8 8 9 10 11 12 13 14 15 16 16 17 17 17 17 17 16 16 16 16 16 16 15 15 15 14 14 13 13 12
13 13 14 15 16 17 17 17 17 18 17 17 16 15 15 15 15 15 15 15 14 14 14 13 13 12 12 11 11 10 10 9 8 8 8 8 9 9 9 9 9 10 10 11 12 13 15 16 16 17 17 17 17 17 16 16 15 15 15 15 15 15 14 14 14 13 13 12 12
14 15 16 17 18 18 19 19 19 18 17 16 16 16 16 16 16 16 15 15 14 13 13 13 13 12 12 11 11 11 11 10 9 8 8 9 9 9 9 10 10 10 11 11 12 13 14 15 16 16 16 16 16 15 14 14 14 14 14 13 14 14 14 14 13 13 13 12 12
Wind_Direction
192 193 193 194 194 196 198 201 202 202 203 204 206 207 209 210 212 213 214 216 217 218 219 220 220 221 222 222 223 224 225 226 227 228 229 230 232 233 234 235 235 236 236 237 237 237 238 238 239 240 240 240 241 241 241 242 241 241 241 241 241 241 241 241 241 240 240 240 241
191 192 193 193 194 196 199 201 202 202 203 204 206 207 209 210 212 214 215 216 218 219 220 221 222 222 223 224 224 225 226 227 228 229 230 231 232 233 234 235 236 236 237 237 237 237 238 238 239 240 241 241 241 241 242 242 242 242 242 242 242 242 242 241 241 241 240 240 241
191 191 192 192 193 196 199 200 201 202 203 204 206 207 209 210 212 214 216 217 218 219 220 221 222 223 224 225 225 226 227 228 229 230 231 232 233 234 235 236 236 237 237 237 238 238 239 239 239 240 241 241 242 242 242 242 242 242 242 242 242 242 242 242 242 241 241 241 240
190 190 190 191 193 196 198 200 200 201 202 204 206 207 209 210 212 214 216 217 218 219 220 221 223 224 225 226 226 227 229 229 230 231 232 233 234 235 235 236 237 237 238 238 238 239 239 239 240 241 242 242 242 242 243 243 243 243 243 243 243 243 243 243 242 242 241 241 240
189 189 190 191 194 197 198 199 199 200 202 204 206 208 209 211 212 214 216 218 219 220 220 221 223 225 226 227 228 229 230 231 232 233 234 234 235 236 237 237 238 238 239 239 239 240 240 240 241 242 242 243 243 244 244 243 243 243 244 244 244 244 244 244 243 242 241 241 240
187 188 189 192 195 197 198 198 199 200 202 205 206 208 210 212 214 216 217 218 219 220 221 222 223 225 227 228 229 230 231 232 233 234 235 236 236 237 237 238 239 239 240 240 241 241 241 241 242 243 243 244 244 244 244 244 244 244 244 245 245 245 244 243 243 242 241 240 240
186 188 190 193 196 197 198 198 199 200 203 206 207 209 211 214 215 216 217 218 219 220 221 223 224 226 228 229 231 232 233 234 235 236 236 237 238 238 238 239 239 240 241 241 242 242 242 242 243 243 244 244 245 245 245 245 245 245 245 246 246 245 244 244 243 242 241 240 240
186 188 191 194 197 198 198 198 200 202 205 207 210 212 214 215 216 217 218 219 220 221 223 224 226 228 229 231 233 234 236 237 237 238 238 239 239 239 239 240 240 241 241 242 242 242 243 243 243 244 245 245 245 245 245 245 245 245 245 246 246 246 245 244 243 242 241 241 240
187 190 193 196 198 198 199 200 202 204 207 210 213 214 215 216 216 217 219 220 222 223 225 227 228 230 232 234 235 237 238 239 239 239 240 240 240 240 240 241 241 241 242 242 242 242 243 243 244 244 245 245 245 246 245 245 245 245 246 246 246 246 245 244 242 241 241 241 241
189 192 195 197 198 199 200 202 204 207 210 213 215 216 216 216 217 218 220 222 224 225 227 229 230 232 234 236 238 239 239 240 240 240 240 241 241 241 241 241 241 241 242 242 242 242 242 243 244 244 245 245 245 246 246 246 246 246 246 247 246 246 245 243 242 241 241 241 240
191 194 196 197 198 199 201 203 205 209 212 215 216 216 216 217 218 220 222 224 225 226 228 230 232 234 236 238 239 240 240 240 240 240 240 240 240 240 240 241 241 241 241 242 242 242 243 244 244 244 245 245 246 246 246 246 246 246 246 246 246 245 244 243 242 241 241 240 240
192 194 196 197 198 200 202 204 207 211 214 216 216 216 217 218 219 221 223 224 225 227 229 232 233 235 237 238 239 239 239 239 239 239 239 239 239 240 240 241 241 241 242 242 243 244 244 245 245 245 245 246 246 247 246 246 246 246 245 245 245 244 244 243 242 241 241 241 242
192 194 195 197 199 201 204 207 210 213 216 217 217 217 218 219 221 222 223 225 227 229 231 233 235 236 237 238 238 238 238 238 238 238 239 239 239 240 241 242 243 243 244 244 245 246 246 246 246 246 247 247 247 247 246 246 245 245 244 244 244 243 243 243 242 242 242 242 244
192 194 196 198 201 204 207 210 213 215 216 217 217 218 219 220 222 224 225 227 229 231 233 234 236 237 238 238 238 238 238 238 239 239 240 241 242 243 244 244 245 246 246 247 247 247 246 246 246 247 247 247 247 247 246 245 244 244 243 243 243 242 243 243 243 242 243 244 245
193 196 198 201 204 207 210 212 214 215 216 216 217 218 220 221 223 225 227 229 231 233 234 235 237 238 239 239 239 240 240 241 241 242 243 244 245 245 246 246 247 247 247 248 248 247 247 246 246 246 246 247 246 246 245 245 244 244 244 243 243 243 243 243 243 243 243 244 244
195 198 201 203 206 209 211 212 214 215 215 216 217 219 221 223 225 227 229 231 233 234 236 237 238 239 240 241 242 243 243 244 244 245 245 246 246 246 247 247 247 247 247 247 247 247 247 247 247 246 246 246 246 246 245 244 244 244 244 244 244 243 243 243 243 243 243 243 243
198 201 203 205 207 209 210 212 213 214 215 216 218 220 223 225 227 230 231 233 234 236 237 238 240 241 242 243 244 245 245 245 246 246 246 247 247 247 247 247 247 247 247 247 247 248 248 248 248 247 247 246 246 246 245 245 244 244 244 244 244 244 243 243 243 242 242 242 241
199 201 203 205 207 208 210 211 212 214 216 218 220 223 226 228 230 232 233 235 236 237 239 241 242 243 245 245 245 246 246 246 246 247 247 248 248 248 248 248 248 248 248 248 248 248 248 248 248 248 248 247 247 246 246 245 245 244 244 244 244 243 243 243 243 242 242 241 240
198 200 202 204 206 208 209 211 213 215 218 220 223 226 228 230 232 234 235 236 238 239 241 243 244 245 245 245 245 246 246 247 248 248 249 249 249 249 249 249 249 249 249 249 249 249 249 249 249 248 248 248 247 247 246 246 245 245 244 243 243 243 243 242 242 242 241 240 239
197 200 202 204 206 208 210 212 215 218 221 223 226 228 230 232 233 235 236 238 239 241 242 243 244 244 245 245 246 247 247 248 249 249 250 250 250 250 250 250 250 250 250 250 250 249 249 249 249 249 248 248 248 247 246 246 245 244 244 243 243 242 242 242 242 241 241 240 238
198 201 203 205 208 210 213 215 218 220 223 225 227 229 231 232 234 236 237 239 240 241 242 243 243 244 245 246 247 248 249 250 250 250 251 251 251 251 251 251 251 251 251 250 250 250 250 249 249 248 248 248 248 247 246 246 245 244 243 242 242 242 242 242 241 240 240 239 237
200 202 205 208 210 213 215 217 220 222 224 226 228 229 231 233 234 236 237 238 239 240 242 243 244 245 246 247 248 249 250 250 251 251 252 252 252 252 252 252 251 251 251 250 250 250 249 249 248 247 247 247 247 246 246 245 244 243 242 242 242 242 241 241 240 240 239 238 237
201 204 207 209 212 214 216 218 220 222 224 226 227 229 231 233 234 236 237 238 239 241 242 243 244 246 247 248 249 250 250 251 251 252 252 252 252 252 252 251 251 250 250 250 249 249 249 248 247 246 245 245 245 245 244 243 242 242 241 241 241 241 240 240 239 238 237 237 236
202 205 207 210 211 213 215 217 219 222 224 226 228 229 231 233 234 236 237 238 240 241 242 244 245 246 247 248 249 250 251 251 252 252 252 252 252 251 251 251 250 249 249 248 248 248 247 247 246 245 245 244 244 243 242 242 241 241 240 240 240 239 238 237 236 235 235 235 234
203 205 207 210 212 214 216 218 221 223 225 227 228 230 231 233 234 236 237 238 240 241 242 243 244 245 246 247 248 249 250 251 252 252 252 252 251 251 250 250 249 249 248 247 247 246 245 245 245 244 244 243 242 242 241 240 240 240 239 239 237 235 234 232 232 231 231 231 231
203 205 208 210 213 216 218 221 223 225 226 228 229 230 232 233 235 236 237 238 239 240 240 241 242 243 244 246 247 248 249 250 251 252 252 252 252 251 251 250 249 248 247 246 245 244 243 243 243 242 241 240 240 239 239 238 238 237 236 234 232 230 227 226 226 226 225 225 226
203 205 208 212 215 218 220 222 224 225 227 228 229 231 232 233 234 235 236 236 237 237 238 238 239 240 241 243 244 246 247 249 250 251 252 252 252 251 250 249 248 247 246 244 243 241 241 240 239 238 236 235 234 234 234 233 232 231 229 228 226 224 222 221 220 220 220 220 220
204 207 210 214 217 219 221 222 224 225 227 228 229 231 232 233 233 234 234 234 234 234 234 235 235 236 238 239 241 243 244 246 248 250 251 252 252 251 250 248 247 245 243 241 239 238 237 236 234 231 229 227 226 227 226 226 225 224 223 223 222 220 218 217 216 216 215 215 215
208 210 213 215 217 219 220 221 223 224 226 227 228 229 230 230 230 230 230 230 230 230 230 231 231 232 233 235 237 239 241 244 246 249 250 251 251 251 249 247 245 242 239 236 235 234 233 231 228 224 221 220 220 220 221 220 219 218 218 218 218 218 217 216 215 214 213 213 213
211 212 214 215 216 218 219 220 221 222 224 225 226 226 226 226 225 225 225 225 225 225 225 225 226 227 229 231 233 235 237 240 243 246 248 249 249 248 245 242 239 236 234 231 230 229 228 226 222 219 216 215 215 216 216 216 215 214 214 214 214 215 215 214 213 212 213 213 214
211 212 213 214 214 216 216 218 218 219 220 221 221 220 220 220 220 220 220 219 219 218 218 218 220 221 223 225 227 229 231 234 238 241 243 244 243 241 237 233 230 228 226 224 223 222 222 221 219 216 213 212 213 213 214 214 213 212 211 211 212 213 213 214 213 213 213 213 213
209 210 210 211 211 212 213 214 214 215 215 214 214 214 214 214 214 214 213 212 211 211 212 213 214 214 215 215 217 220 224 228 232 235 236 235 231 226 222 219 218 217 216 214 213 213 214 215 215 215 213 212 212 211 211 210 209 207 206 207 210 212 214 214 214 213 211 211 210
205 206 206 207 207 208 209 209 209 209 209 209 209 210 210 210 209 208 207 206 205 205 206 207 206 206 205 205 206 210 215 220 223 224 223 220 214 208 204 202 204 206 207 204 202 202 204 206 209 211 212 212 210 208 206 204 202 199 199 203 208 212 213 212 211 209 207 206 204
201 201 202 203 203 204 204 205 205 204 205 206 207 208 208 206 205 203 201 201 201 201 202 202 200 199 198 198 200 203 208 211 211 208 205 202 197 193 191 193 197 200 200 197 195 194 194 196 199 202 204 204 203 199 196 193 192 191 194 200 206 209 208 205 203 201 200 198 196
197 197 198 199 200 201 201 202 202 202 203 204 204 204 203 201 199 197 197 198 198 198 198 196 194 193 192 192 193 194 195 194 189 185 182 181 179 178 179 183 188 191 192 191 190 188 187 188 190 193 194 194 191 188 184 182 182 185 189 195 197 197 194 192 190 190 189 187 185
193 194 195 196 198 199 200 200 201 201 201 200 198 196 194 193 193 193 194 195 195 194 192 190 188 186 185 184 185 185 181 174 168 166 165 164 162 162 163 167 172 177 180 181 180 179 179 181 184 186 185 182 178 176 174 174 176 178 181 182 181 178 176 176 176 176 176 177 177
192 193 194 195 196 197 197 198 197 196 194 191 189 187 186 186 187 189 191 192 190 187 185 182 180 178 177 177 176 173 168 162 157 157 158 158 154 151 148 149 153 159 163 164 165 166 169 172 175 177 175 171 168 166 166 167 169 170 169 168 167 166 165 165 165 166 167 170 173
190 190 190 190 191 191 191 191 189 187 184 181 180 180 181 182 183 185 187 187 184 180 177 174 172 171 170 168 165 160 155 152 151 152 154 155 153 147 141 137 138 141 143 145 149 153 158 161 164 166 165 162 160 160 160 161 162 163 164 165 165 164 163 164 163 164 165 167 170
183 183 183 182 182 181 181 179 177 174 172 172 173 174 175 176 177 178 178 176 173 170 168 166 165 163 161 158 154 149 146 144 145 147 150 153 152 148 140 134 132 132 133 136 141 146 150 154 156 157 158 157 156 156 156 157 159 161 164 166 166 165 163 163 164 164 164 164 164
175 175 175 174 172 170 168 165 163 163 164 165 166 167 167 168 167 166 164 161 159 159 158 157 156 154 152 149 146 144 143 143 143 143 146 149 150 146 140 135 133 132 133 136 140 145 149 152 154 154 154 154 153 153 154 154 156 159 162 165 165 164 163 162 162 162 163 163 164
171 169 167 164 161 158 155 153 153 155 157 159 159 159 159 158 156 154 152 151 150 150 150 149 148 146 146 146 146 146 145 145 144 143 144 146 147 146 142 139 137 136 137 138 141 145 148 149 150 150 151 151 151 151 151 150 150 151 153 157 159 160 161 161 162 163 165 168 171